Preview of NWS' New Version of Forecast
This preview is not operational and should not be used for support decisions.

Regional Weather Roundup (RWR)

Issued by National Weather Service (NWS)

                            
000
ASUS46 KSEW 170210
RWRWA 

WASHINGTON REGIONAL WEATHER ROUNDUP
NATIONAL WEATHER SERVICE SEATTLE WA
700 PM PDT SAT MAR 16 2019

NOTE:"FAIR" INDICATES FEW OR NO CLOUDS BELOW 12,000 FEET WITH NO 
SIGNIFICANT WEATHER AND/OR OBSTRUCTIONS TO VISIBILITY.

WAZ507-509-555>559-170300-
SEATTLE, TACOMA, EVERETT, AND VICINITY
  
CITY           SKY/WX    TMP DP  RH WIND       PRES   REMARKS
EVERETT        MOCLDY    52  40  63 NW5       30.27S                  
BOEING FIELD   MOCLDY    55  39  54 CALM      30.25F                  
RENTON         MOCLDY    54  40  59 NW5       30.25S                  
SEATAC AIRPORT MOCLDY    56  39  53 N5        30.25S                  
JBLM-MCCHORD   NOT AVBL                                               
PUYALLUP       FAIR      55  41  58 CALM      30.25S                  
BREMERTON      CLOUDY    54  41  61 E5        30.26S                  
JBLM-FT LEWIS  NOT AVBL                                               
TACOMA NARROWS CLOUDY    54  38  54 N5        30.26S                  
$$
 
WAZ001-503-506-510-514-515-170300-
NORTH INTERIOR
  
CITY           SKY/WX    TMP DP  RH WIND       PRES   REMARKS
BELLINGHAM     CLOUDY    53  36  52 W3        30.26S                  
FRIDAY HARBOR  CLOUDY    51  36  56 N5        30.27S                  
EASTSOUND      CLOUDY    46  45  93 CALM      30.27S                  
PORT ANGELES   CLOUDY    54  35  48 CALM      30.27S                  
EDIZ HOOK      FAIR      48  44  84 CALM      30.27S                  
PORT TOWNSEND  FAIR      52  39  62 CALM      30.26S                  
NAS WHIDBEY    NOT AVBL                                               
ARLINGTON      MOCLDY    53  42  66 NW9       30.26S                  
BURLINGTON     CLEAR     50  39  66 NW6       30.27S                  
$$
 
WAZ020-022-039-040-504-511-512-170300-
SOUTHWEST INTERIOR
  
CITY           SKY/WX    TMP DP  RH WIND       PRES   REMARKS
SHELTON        CLOUDY    59  38  45 CALM      30.23R                  
OLYMPIA        CLOUDY    57  39  51 N5        30.24S                  
CHEHALIS       FAIR      57  45  62 CALM      30.23S                  
KELSO          CLOUDY    60  39  45 CALM      30.23S                  
VANCOUVER      CLOUDY    54  34  46 E7        30.22F                  
SCAPPOOSE, OR  CLOUDY    60  41  49 CALM      30.21F                  
PORTLAND, OR   CLOUDY    54  34  46 E13       30.23S                  
$$
 
WAZ021-516-517-170300-
WASHINGTON COAST
  
CITY           SKY/WX    TMP DP  RH WIND       PRES   REMARKS
FORKS          CLOUDY    52  40  63 CALM      30.25F                  
HOQUIAM        CLOUDY    54  41  61 NW3       30.25S                  
ASTORIA, OR    MOCLDY    51  43  74 W3        30.23F                  
$$
 
WAZ019-023-024-040-567>569-170300-
CASCADE MOUNTAINS AND COLUMBIA GORGE
  
CITY           SKY/WX    TMP DP  RH WIND       PRES   REMARKS
STAMPEDE PASS  NOT AVBL                                               
TROUTDALE, OR  CLOUDY    52  33  48 E15       30.23S                  
HOOD RIVER, OR CLOUDY    46  32  57 MISG      30.30S                  
THE DALLES, OR MOCLDY    45  34  65 E5        30.33S                  
$$

WAZ026-027-041>044-520-521-170300-
EAST SLOPES
  
CITY           SKY/WX    TMP DP  RH WIND       PRES   REMARKS
OMAK           MOCLDY    40  28  62 S6        30.31S                  
WENATCHEE      MOCLDY    41  29  62 NE5       30.30F                  
ELLENSBURG     MOCLDY    40  29  64 NW3       30.29F                  
YAKIMA         MOCLDY    43  29  57 CALM      30.31S                  
SUNNYSIDE ARPT MOCLDY    42  34  72 CALM      30.33                   
YAKIMA TC      NOT AVBL                                               
$$

WAZ028-034-035-170300-
COLUMBIA BASIN
  
CITY           SKY/WX    TMP DP  RH WIND       PRES   REMARKS
EPHRATA        MOCLDY    39  29  67 NW6       30.30F                  
MOSES LAKE     MOCLDY    39  30  70 W7        30.31F                  
PASCO          PTCLDY    41  30  65 CALM      30.35S                  
RICHLAND ARPT  PTCLDY    43  32  65 CALM      30.35S                  
HERMISTON, OR  PTCLDY    43  31  62 E6        30.32S                  
$$

WAZ036>038-170300-
NORTHEAST WASHINGTON
  
CITY           SKY/WX    TMP DP  RH WIND       PRES   REMARKS
SPOKANE GEIGER MOCLDY    39  28  64 W7        30.27S                  
SPOKANE FELTS  MOCLDY    42  28  57 CALM      30.28S                  
FAIRCHILD AFB  NOT AVBL                                               
COEURDALENE,ID PTCLDY    41  28  60 CALM      30.27S                  
DEER PARK      PTCLDY    36  26  67 CALM      30.27F                  
$$

WAZ029>033-170300-
SOUTHEAST WASHINGTON
  
CITY           SKY/WX    TMP DP  RH WIND       PRES   REMARKS
PULLMAN        MOCLDY    37  28  70 CALM      30.28S                  
LEWISTON, ID   MOCLDY    46  30  53 S6        30.27S                  
WALLA WALLA    MOCLDY    41  32  70 CALM      30.31S                  
PENDLETON, OR  MOCLDY    38  31  76 E7        30.29F                  
$$